Stations météo

réclame
Mon MeteoGroup
Bournemouth Airport, Grande-Bretagne (3862): Température de l'air & dewpoint: 11.11.2017 17:00:00 - 17.11.2017 17:00:00 (GMT)Bournemouth Airport, Grande-Bretagne (3862): Température de l'air -20cm & Température de l'air -100cm: 11.11.2017 17:00:00 - 17.11.2017 17:00:00 (GMT)Bournemouth Airport, Grande-Bretagne (3862): Vitesse du vent & gusts: 11.11.2017 17:00:00 - 17.11.2017 17:00:00 (GMT)Bournemouth Airport, Grande-Bretagne (3862): Direction du vent: 11.11.2017 17:00:00 - 17.11.2017 17:00:00 (GMT)Bournemouth Airport, Grande-Bretagne (3862): reduced air pressure: 11.11.2017 17:00:00 - 17.11.2017 17:00:00 (GMT)Bournemouth Airport, Grande-Bretagne (3862): visibility: 11.11.2017 17:00:00 - 17.11.2017 17:00:00 (GMT)Bournemouth Airport, Grande-Bretagne (3862): Ensoleillement: 11.11.2017 17:00:00 - 17.11.2017 17:00:00 (GMT)Bournemouth Airport, Grande-Bretagne (3862): Quantités de précipitations: 11.11.2017 17:00:00 - 17.11.2017 17:00:00 (GMT)
Date & Time tt [°C] td [°C] tt -20cm [°C] tt -100cm [°C] ff [km/h] ff [knt] fx [km/h] fx [knt] dd ppp [hPa] vv [km] sd [min] rr [mm]
17.11.2017 17:00:00 5,0 1,0 - - 5 3 - - NNE - 10 - 0,0
17.11.2017 16:00:00 6,9 0,6 - - 5 3 - - NNE 1028,9 10 60 0,0
17.11.2017 15:00:00 8,6 2,5 - - 8 4 - - N 1028,8 10 60 0,0
17.11.2017 14:00:00 9,1 -0,9 - - 11 6 - - N 1029,4 10 60 0,0
17.11.2017 13:00:00 9,5 2,7 - - 11 6 - - NNE 1029,9 10 60 0,0
17.11.2017 12:00:00 8,9 2,8 - - 9 5 - - NE 1030,2 10 60 0,0
17.11.2017 11:00:00 7,6 3,6 - - 8 4 - - NNE 1030,4 10 54 0,0
17.11.2017 10:00:00 5,0 3,1 - - 8 4 - - NNW 1030,4 10 60 0,0
17.11.2017 09:00:00 1,1 0,8 - - 8 4 - - N 1030,3 10 24 0,0
17.11.2017 08:00:00 -0,9 -1,6 - - 8 4 - - N 1030,3 10 0 0,0
17.11.2017 07:00:00 0,3 -0,4 - - 4 2 - - WNW 1029,9 10 0 0,0
17.11.2017 06:00:00 1,3 0,3 - - 2 1 - - N 1029,7 10 0 -
17.11.2017 05:00:00 2,5 1,2 - - 5 3 - - N 1029,5 17 0 0,0
17.11.2017 04:00:00 2,4 0,5 - - 4 2 - - NNW 1029,5 22 0 0,0
17.11.2017 03:00:00 3,7 1,6 - - 11 6 - - N 1029,2 26 0 0,0
17.11.2017 02:00:00 5,4 2,1 - - 11 6 - - NNE 1029,0 20 0 0,0
17.11.2017 01:00:00 6,2 2,7 - - 16 9 - - N 1028,6 22 0 0,0
17.11.2017 00:00:00 6,4 3,2 - - 15 8 - - N 1028,5 20 - 0,0
16.11.2017 23:00:00 6,9 3,9 - - 11 6 - - N 1028,2 22 0 0,0
16.11.2017 22:00:00 8,4 5,5 - - 15 8 - - N 1027,4 10 0 0,0
16.11.2017 21:00:00 8,4 6,3 - - 11 6 - - N 1026,9 10 0 0,0
16.11.2017 20:00:00 8,8 6,1 - - 11 6 - - NNE 1026,4 10 0 0,0
16.11.2017 19:00:00 9,5 7,1 - - 2 1 - - NNE 1025,8 10 0 0,0
16.11.2017 18:00:00 11,6 8,9 - - 8 4 - - WNW 1024,6 10 0 0,0
16.11.2017 17:00:00 11,8 8,2 - - 2 1 - - WSW 1024,0 10 0 0,0
16.11.2017 16:00:00 12,4 8,4 - - 4 2 - - - 1023,5 10 0 0,0
16.11.2017 15:00:00 12,8 7,9 - - 8 4 - - - 1023,2 10 18 0,0
16.11.2017 14:00:00 14,9 6,2 - - 13 7 - - WNW 1022,8 10 60 0,0
16.11.2017 13:00:00 13,2 8,2 - - 18 10 - - W 1023,1 10 48 0,0
16.11.2017 12:00:00 13,7 10,2 - - 8 4 - - WSW 1022,8 10 24 0,0
16.11.2017 11:00:00 12,5 10,0 - - 8 4 - - WSW 1023,1 10 0 0,0
16.11.2017 10:00:00 11,6 10,6 - - 8 4 - - WNW 1023,3 10 0 0,0
16.11.2017 09:00:00 10,9 10,4 - - 5 3 - - SSW 1022,9 10 0 0,0
16.11.2017 08:00:00 10,7 10,2 - - 4 2 - - SW 1022,6 10 0 0,0
16.11.2017 07:00:00 10,3 10,1 - - 5 3 - - W 1022,4 10 0 0,0
16.11.2017 06:00:00 10,5 10,3 - - 5 3 - - SW 1021,9 16 0 0,0
16.11.2017 05:00:00 9,6 9,4 - - 4 2 - - SW 1021,9 8 0 0,0
16.11.2017 04:00:00 9,0 8,7 - - 4 2 - - SSW 1022,0 4,4 0 0,0
16.11.2017 03:00:00 9,7 9,4 - - 4 2 - - WSW 1022,1 8 0 0,0
16.11.2017 02:00:00 9,9 9,7 - - 5 3 - - W 1022,8 10 0 0,0
16.11.2017 01:00:00 9,5 9,2 - - 4 2 - - W 1023,2 5 0 0,0
16.11.2017 00:00:00 9,5 9,3 - - 4 2 - - - 1023,5 3,8 - 0,0
15.11.2017 23:00:00 8,8 8,3 - - 4 2 - - - 1023,5 4,0 0 0,0
15.11.2017 22:00:00 10,3 9,9 - - 4 2 - - - 1023,6 10 0 0,0
15.11.2017 21:00:00 10,1 9,4 - - 4 2 - - SSW 1023,7 10 0 0,0
15.11.2017 20:00:00 10,0 9,3 - - 2 1 - - SE 1023,8 10 0 0,0
15.11.2017 19:00:00 11,2 10,3 - - 5 3 - - W 1023,8 10 0 -
15.11.2017 18:00:00 11,6 10,5 - - 5 3 - - WSW 1024,0 10 0 0,0
15.11.2017 17:00:00 12,2 10,8 - - 8 4 - - WSW 1024,0 10 0 0,0
15.11.2017 16:00:00 12,7 10,8 - - 5 3 - - W 1024,0 10 0 0,0
15.11.2017 15:00:00 13,7 11,0 - - 4 2 - - WNW 1024,2 10 0 0,0
15.11.2017 14:00:00 13,7 10,9 - - 4 2 - - W 1024,0 10 0 0,0
15.11.2017 13:00:00 13,6 11,2 - - 9 5 - - WNW 1024,5 10 0 0,0
15.11.2017 12:00:00 13,3 11,0 - - 8 4 - - - 1024,8 10 0 0,0
15.11.2017 11:00:00 12,5 11,1 - - 5 3 - - - 1025,1 10 0 0,0
15.11.2017 10:00:00 11,4 11,0 - - 4 2 - - SSW 1025,1 10 0 0,0
15.11.2017 09:00:00 10,9 10,7 - - 4 2 - - WNW 1025,0 19 0 0,0
15.11.2017 08:00:00 10,4 10,2 - - 8 4 - - W 1024,8 10 0 0,0
15.11.2017 07:00:00 10,2 9,9 - - 5 3 - - W 1024,4 10 0 0,0
15.11.2017 06:00:00 10,3 9,9 - - 8 4 - - W 1024,2 10 0 0,0
15.11.2017 05:00:00 11,1 10,7 - - 9 5 - - W 1024,2 21 0 0,0
15.11.2017 04:00:00 11,2 10,7 - - 8 4 - - WSW 1024,2 14 0 0,0
15.11.2017 03:00:00 11,0 10,5 - - 5 3 - - SW 1024,2 17 0 0,2
15.11.2017 02:00:00 11,2 10,2 - - 8 4 - - WSW 1024,3 23 0 0,0
15.11.2017 01:00:00 10,6 9,8 - - 8 4 - - WSW 1024,4 24 0 0,0
15.11.2017 00:00:00 10,4 9,3 - - 5 3 - - SW 1024,6 10 - 0,0
14.11.2017 23:00:00 9,8 8,7 - - 5 3 - - SW 1024,7 10 0 0,0
14.11.2017 22:00:00 9,7 8,7 - - 4 2 - - W 1024,8 10 0 0,0
14.11.2017 21:00:00 9,7 8,3 - - 8 4 - - W 1024,9 10 0 0,0
14.11.2017 20:00:00 10,1 8,8 - - 9 5 - - W 1024,5 10 0 0,0
14.11.2017 19:00:00 10,2 8,3 - - 8 4 - - WSW 1024,4 10 0 0,0
14.11.2017 18:00:00 10,9 8,7 - - 9 5 - - WSW 1024,5 10 0 0,0
14.11.2017 17:00:00 11,1 8,8 - - 11 6 - - W 1024,3 10 0 0,0
14.11.2017 16:00:00 11,5 9,0 - - 15 8 - - W 1024,0 10 0 0,0
14.11.2017 15:00:00 11,8 8,9 - - 13 7 - - W 1024,3 10 0 0,0
14.11.2017 14:00:00 12,2 9,1 - - 18 10 - - W 1024,3 10 0 0,0
14.11.2017 13:00:00 12,3 9,2 - - 18 10 - - W 1024,5 10 0 0,0
14.11.2017 12:00:00 12,0 8,8 - - 18 10 - - W 1024,7 10 0 0,0
14.11.2017 11:00:00 11,3 8,4 - - 13 7 - - W 1025,1 10 0 0,0
14.11.2017 10:00:00 10,5 8,3 - - 11 6 - - W 1025,1 10 0 0,0
14.11.2017 09:00:00 9,7 7,9 - - 9 5 - - W 1024,8 10 0 0,0
14.11.2017 08:00:00 8,7 7,5 - - 8 4 - - WSW 1024,8 10 0 -
14.11.2017 07:00:00 8,8 6,7 - - 11 6 - - WSW 1024,5 10 0 0,0
14.11.2017 06:00:00 7,8 6,0 - - 9 5 - - W 1024,5 10 0 0,0
14.11.2017 05:00:00 7,6 5,6 - - 9 5 - - W 1024,6 24 0 0,0
14.11.2017 04:00:00 6,2 4,7 - - 9 5 - - SW 1024,9 19 0 0,0
14.11.2017 03:00:00 5,0 3,3 - - 9 5 - - W 1025,3 20 0 0,0
14.11.2017 02:00:00 4,0 3,2 - - 4 2 - - SW 1025,9 18 0 0,0
14.11.2017 01:00:00 2,2 1,7 - - 8 4 - - W 1026,3 15 0 0,0
14.11.2017 00:00:00 2,7 1,9 - - 2 1 - - S 1026,6 21 - 0,0
13.11.2017 23:00:00 3,2 2,5 - - 5 3 - - NNE 1027,0 16 0 -
13.11.2017 22:00:00 4,1 2,8 - - 2 1 - - WSW 1027,0 10 0 0,0
13.11.2017 21:00:00 4,4 3,0 - - 8 4 - - SSE 1027,4 10 0 0,0
13.11.2017 20:00:00 5,1 3,0 - - 2 1 - - SSE 1027,4 10 0 0,0
13.11.2017 19:00:00 4,6 2,8 - - 5 3 - - SW 1027,5 10 0 0,0
13.11.2017 18:00:00 5,5 2,7 - - 5 3 - - W 1027,7 10 0 0,0
13.11.2017 17:00:00 6,2 2,3 - - 9 5 - - WNW 1027,7 10 0 0,0
13.11.2017 16:00:00 6,9 1,7 - - 8 4 - - NW 1027,5 10 0 0,0
13.11.2017 15:00:00 7,0 1,6 - - 11 6 - - NNW 1027,5 10 0 0,0
13.11.2017 14:00:00 7,1 1,4 - - 9 5 - - NNW 1027,6 10 0 0,0
13.11.2017 13:00:00 6,7 1,4 - - 15 8 - - NNW 1027,8 10 0 0,0
13.11.2017 12:00:00 6,3 1,2 - - 13 7 - - NNW 1028,1 10 0 0,0
13.11.2017 11:00:00 6,2 1,5 - - 16 9 - - N 1028,4 10 6 0,0
13.11.2017 10:00:00 6,2 2,2 - - 13 7 - - N 1027,9 10 60 -
13.11.2017 09:00:00 2,6 0,5 9,7 11,2 11 6 - - NNW 1027,7 10 30 0,0
13.11.2017 08:00:00 0,0 -1,3 - - 9 5 - - NNW 1027,0 10 0 0,0
13.11.2017 07:00:00 -0,7 -2,0 - - 13 7 - - NNW 1026,4 10 0 0,0
13.11.2017 06:00:00 0,2 -1,3 - - 16 9 - - NW 1026,1 40 0 0,0
13.11.2017 05:00:00 0,7 -1,0 - - 15 8 - - NNW 1025,7 40 0 0,0
13.11.2017 04:00:00 0,7 -0,9 - - 15 8 - - NNW 1025,5 35 0 0,0
13.11.2017 03:00:00 0,3 -1,3 - - 15 8 - - NNW 1025,1 35 0 -
13.11.2017 02:00:00 1,2 -0,8 - - 16 9 - - NNW 1024,8 30 0 0,0
13.11.2017 01:00:00 1,8 -0,4 - - 13 7 - - NNW 1024,4 30 0 0,0
13.11.2017 00:00:00 2,3 -0,3 - - 13 7 - - NW 1024,0 10 - 0,0
12.11.2017 23:00:00 3,8 0,3 - - 16 9 - - NNW 1023,3 10 0 0,0
12.11.2017 22:00:00 4,0 0,6 - - 21 11 - - NNW 1022,5 10 0 0,0
12.11.2017 21:00:00 4,8 0,6 - - 16 9 - - NW 1021,9 10 0 -
12.11.2017 20:00:00 5,1 0,8 - - 21 11 - - NNW 1020,9 10 0 0,0
12.11.2017 19:00:00 4,4 1,2 - - 16 9 - - NNW 1019,8 10 0 0,0
12.11.2017 18:00:00 5,5 1,6 - - 21 11 - - N 1018,3 10 0 0,0
12.11.2017 17:00:00 6,2 1,1 - - 22 12 - - NNW 1017,0 10 18 0,0
12.11.2017 16:00:00 7,3 1,2 - - 24 13 55 30 NNW 1015,6 10 36 0,0
12.11.2017 15:00:00 8,3 2,0 - - 29 16 48 26 NNW 1014,9 10 60 0,0
12.11.2017 14:00:00 8,6 3,5 - - 29 16 46 25 NNW 1014,1 10 60 0,0
12.11.2017 13:00:00 8,1 3,9 - - 31 17 50 27 NW 1013,8 10 42 -
12.11.2017 12:00:00 9,2 4,3 - - 31 17 52 28 NNW 1012,8 10 60 0,0
12.11.2017 11:00:00 8,7 4,2 - - 28 15 - - NNW 1012,4 10 42 0,0
12.11.2017 10:00:00 8,3 4,9 - - 29 16 - - NW 1012,1 10 60 0,0
12.11.2017 09:00:00 7,2 4,5 10,4 11,2 16 9 - - NW 1011,5 10 36 0,0
12.11.2017 08:00:00 6,5 4,9 - - 21 11 - - WNW 1010,9 10 0 0,0
12.11.2017 07:00:00 6,6 5,4 - - 16 9 - - NW 1010,2 10 0 0,0
12.11.2017 06:00:00 7,3 6,3 - - 11 6 - - NNW 1009,6 10 0 0,0
12.11.2017 05:00:00 7,8 7,7 - - 13 7 - - NNW 1009,5 4,3 0 0,2
12.11.2017 04:00:00 7,7 7,4 - - 5 3 - - NNW 1008,6 15 0 0,0
12.11.2017 03:00:00 7,9 7,7 - - 8 4 - - NNE 1008,5 11 0 0,6
12.11.2017 02:00:00 7,9 7,7 - - 11 6 - - NNE 1009,4 2,5 0 0,6
12.11.2017 01:00:00 8,2 8,0 - - 9 5 - - E 1009,8 3,3 0 0,8
12.11.2017 00:00:00 8,5 8,2 - - 8 4 - - E 1011,1 2,3 - -
11.11.2017 23:00:00 8,7 8,3 - - 8 4 - - SE 1011,8 2,0 0 1,6
11.11.2017 22:00:00 8,9 8,4 - - 5 3 - - ESE 1012,4 2,5 0 0,2
11.11.2017 21:00:00 8,9 8,4 - - 0 0 - - N 1012,7 6 0 0,0
11.11.2017 20:00:00 9,0 8,4 - - 2 1 - - NNE 1013,2 10 0 -
11.11.2017 19:00:00 9,4 8,8 - - 9 5 - - NE 1013,2 10 0 0,0
11.11.2017 18:00:00 10,0 9,3 - - 8 4 - - NNE 1013,1 10 0 0,0
11.11.2017 17:00:00 10,8 9,6 - - 8 4 - - N 1012,5 10 0 0,0

tt = Température de l'air
td = dewpoint
tt -20cm = Température de l'air -20cm
tt -100cm = Température de l'air -100cm
ff = Vitesse du vent
fx = gusts
dd = Direction du vent
ppp = reduced air pressure
vv = visibility
sd = Ensoleillement
rr = Quantités de précipitations

stations d'obs. à proximité